This is the latest recevied weather packets stored in our database for station/object VK4TW-13. If no packets are shown the sender has not sent any weather packets the latest 10 day(s).
| Time | Temp. | Humidity | Pressure | Rain* | Wind** | Luminosity | Snow |
|---|---|---|---|---|---|---|---|
| 1777518825 | 28.33° C | 99% | 1019.3 hPa | 0 mm | - | - | - |
| 1777518615 | 28.33° C | 98% | 1019.4 hPa | 0 mm | - | - | - |
| 1777518368 | 28.33° C | 97% | 1019.4 hPa | 0 mm | - | - | - |
| 1777518173 | 28.33° C | 99% | 1019.3 hPa | 0 mm | - | - | - |
| 1777517693 | 28.33° C | 98% | 1019.6 hPa | 0 mm | - | - | - |
| 1777517502 | 28.33° C | 97% | 1019.4 hPa | 0 mm | - | - | - |
| 1777517262 | 28.33° C | 97% | 1019.5 hPa | 0 mm | - | - | - |
| 1777517014 | 28.33° C | 98% | 1019.7 hPa | 0 mm | - | - | - |
| 1777516743 | 28.33° C | 96% | 1019.7 hPa | 0 mm | - | - | - |
| 1777516437 | 28.33° C | 97% | 1019.7 hPa | 0 mm | - | - | - |
| 1777516087 | 27.78° C | 100% | 1019.9 hPa | 0 mm | - | - | - |
| 1777515906 | 27.78° C | 99% | 1019.9 hPa | 0 mm | - | - | - |
| 1777515719 | 27.78° C | 100% | 1020.2 hPa | 0 mm | - | - | - |
| 1777515539 | 27.78° C | 99% | 1019.9 hPa | 0 mm | - | - | - |
| 1777515151 | 27.78° C | 100% | 1020.3 hPa | 0 mm | - | - | - |
| 1777514834 | 27.78° C | 100% | 1020.4 hPa | 0 mm | - | - | - |
| 1777514549 | 27.78° C | 100% | 1020.4 hPa | 0 mm | - | - | - |
| 1777514382 | 27.78° C | 100% | 1020.4 hPa | 0 mm | - | - | - |
| 1777514105 | 27.78° C | 100% | 1020.5 hPa | 0 mm | - | - | - |
| 1777513918 | 27.78° C | 100% | 1020.6 hPa | 0 mm | - | - | - |
| 1777513673 | 27.78° C | 100% | 1020.6 hPa | 0 mm | - | - | - |
| 1777513403 | 27.78° C | 100% | 1020.9 hPa | 0 mm | - | - | - |
| 1777513133 | 27.78° C | 100% | 1020.8 hPa | 0 mm | - | - | - |
| 1777512952 | 27.78° C | 100% | 1020.9 hPa | 0 mm | - | - | - |
| 1777512656 | 27.78° C | 100% | 1020.9 hPa | 0 mm | - | - | - |
* Rain since midnight (hover to see other rain measurements)
** Current wind speed in m/s (hover to see current wind gust speed)